Flag for Canada Weather past 2 weeks in Saguenay, Quebec, Canada

Now
38 °F

Chilly.


Feels Like: 34 °F
Forecast: 31 / 51 °F
Wind: 6 mph from South

Location: Jonquiere Airport

Current Time: Oct 24, 2014 at 11:05:36 PM

Latest Report: Oct 24, 2014 at 10:00 PM


Visibility: N/A

Pressure: 29.82 "Hg

Humidity: 83%

Dew point: 33 °F

Location of SaguenayLocation

Historic Weather in Saguenay — Graph

°F

Saguenay temperature yesterday

Maximum temperature yesterday: 53 °F (at 4:00 PM)
Minimum temperature yesterday: 27 °F (at 7:00 AM)
Average temperature yesterday: 39 °F

Past Weeks' High & Low Weather Summary

 TemperatureHumidityPressure
High72 °F (Oct 15, 12:00 AM)100% (Oct 12, 2:00 AM)30.53 "Hg (Oct 12, 2:00 AM)
Low27 °F (Oct 22, 7:00 AM)28% (Oct 24, 4:00 PM)29.36 "Hg (Oct 17, 4:00 PM)
Average45 °F80%29.98 "Hg
* Reported Oct 9 9:00 PM — Oct 24 9:00 PM, Saguenay, Weather by CustomWeather, © 2014

Note: Actual official high and low records may vary slightly from our data, if they occured in-between our weather recording intervals... More about our weather records

Advertising

Saguenay weather history for previous 24 hours

 ConditionsComfort  
Time TempWeatherWind HumidityBarometerVisibility
9:00 PM
Oct 24
40 °FChilly.No wind72%29.83 "HgN/A
8:00 PM41 °FQuite cool.2 mph72%29.84 "HgN/A
7:00 PM44 °FQuite cool.2 mph66%29.86 "HgN/A
6:00 PM47 °FCool.6 mph54%29.85 "HgN/A
5:00 PM53 °FCool.1 mph29%29.85 "HgN/A
4:00 PM56 °FRefreshingly cool.2 mph28%29.85 "HgN/A
3:00 PM54 °FCool.1 mph31%29.87 "HgN/A
2:00 PM52 °FCool.2 mph39%29.90 "HgN/A
1:00 PM49 °FCool.3 mph51%29.93 "HgN/A
12:00 PM47 °FCool.1 mph67%29.96 "HgN/A
11:00 AM36 °FChilly.2 mph95%29.99 "HgN/A
10:00 AM35 °FChilly.No wind97%30.02 "HgN/A
9:00 AM31 °FChilly.3 mph100%30.02 "HgN/A
8:00 AM31 °FChilly.3 mph96%30.03 "HgN/A
7:00 AM31 °FChilly.2 mph97%30.03 "HgN/A
6:00 AM31 °FChilly.1 mph96%30.03 "HgN/A
5:00 AM33 °FChilly.1 mph93%30.02 "HgN/A
4:00 AM31 °FChilly.2 mph98%30.04 "HgN/A
3:00 AM33 °FChilly.2 mph96%30.05 "HgN/A
2:00 AM34 °FChilly.1 mph96%30.07 "HgN/A
1:00 AM34 °FChilly.1 mph95%30.08 "HgN/A
12:00 AM36 °FChilly.No wind91%30.09 "HgN/A
11:00 PM
Oct 23
38 °FChilly.1 mph85%30.12 "HgN/A
Weather by CustomWeather, © 2014

See weather overviewHow to use our weather pages